[[{"header":{"parameterUnit":"m.s-1","parameterCategory":1,"la1":30.2991,"la2":30.254,"lo1":-89.0895,"lo2":-89.0444,"dy":0.0017,"dx":0.0017,"nx":28,"ny":28,"refTime":"2025-07-05T03:00:00:Z","depth":0,"parameterNumber":2,"parameterNumberName":"U-component_of_WINDS"},"data":[0,0,0,0,0,0,0,0,0,0,0,0,0,0,0,0,0,0,0,0,0,0,0,0,0,0,0,0,0,0,0,0,0,0,0,0,0,0,0,0,0,0,0,0,0,0,0,0,0,0,0,0,0,0,0,0,0,0,-0.6262,-0.6261,0,-0.6186,-0.6185,-0.6185,-0.6144,-0.6143,-0.6143,-0.6143,-0.6064,-0.6062,-0.606,0,0,0,0,0,0,0,0,0,0,0,0,0,-0.637,-0.6369,-0.6262,-0.6261,-0.626,-0.6186,-0.6185,-0.6184,-0.6144,-0.6143,-0.6143,-0.6143,-0.6064,-0.6062,-0.606,0,0,0,0,0,0,0,0,0,0,0,0,0,-0.6312,-0.6368,-0.6262,-0.6231,-0.6228,-0.6187,-0.6185,-0.6184,-0.6144,-0.6143,-0.6143,-0.6143,-0.6065,-0.6062,-0.6059,-0.6043,0,0,-0.605,-0.6049,0,0,0,0,0,0,0,0,-0.6315,-0.6308,-0.6237,-0.6233,-0.6229,-0.6174,-0.6194,-0.6137,-0.6144,-0.6175,-0.6143,-0.6143,-0.6101,-0.6095,-0.6081,-0.6039,-0.6036,-0.605,-0.6048,-0.6047,-0.6046,0,0,0,0,0,0,0,-0.6319,-0.6311,-0.6232,-0.6236,-0.6231,-0.622,-0.6212,-0.6183,-0.614,-0.6173,-0.617,-0.6161,-0.6098,-0.6084,-0.6078,-0.6035,-0.605,-0.6047,-0.6045,-0.6044,-0.5977,-0.5977,0,0,0,0,0,0,-0.6329,-0.6315,-0.6235,-0.623,-0.6273,-0.6219,-0.6209,-0.6192,-0.614,-0.6132,-0.6161,-0.616,-0.6089,-0.6082,-0.6075,-0.6053,-0.6047,-0.6044,-0.6042,-0.5977,-0.5977,-0.5977,0,0,0,0,0,0,-0.6331,-0.6322,-0.6238,-0.6271,-0.626,-0.6217,-0.6198,-0.6191,-0.6176,-0.6131,-0.6123,-0.6154,-0.6089,-0.608,-0.6052,-0.605,-0.6042,-0.604,-0.5976,-0.5977,-0.5977,-0.6009,0,0,0,0,0,0,-0.6334,-0.6323,-0.6317,-0.6272,-0.6258,-0.6216,-0.6198,-0.6189,-0.6171,-0.6168,-0.6123,-0.6115,-0.6088,-0.6056,-0.6049,-0.6045,-0.6037,-0.5976,-0.5977,-0.5977,-0.6007,-0.601,-0.6012,0,0,0,0,0,-0.6338,-0.6328,-0.6317,-0.6307,-0.625,-0.6216,-0.6208,-0.6177,-0.6171,-0.6164,-0.6135,-0.6116,-0.6051,-0.6054,-0.6045,-0.6041,-0.5976,-0.5976,-0.5977,-0.6007,-0.6009,-0.6012,0,0,0,0,0,0,-0.6374,-0.6322,-0.6308,-0.6283,-0.6254,-0.6209,-0.6199,-0.6181,-0.6153,-0.6151,-0.6114,-0.6104,-0.6079,-0.6057,-0.6061,-0.6022,-0.6012,-0.601,-0.6038,-0.604,-0.6042,-0.6048,-0.6035,0,0,0,0,0,-0.6379,-0.6356,-0.6312,-0.6294,-0.628,-0.6242,-0.6226,-0.6205,-0.6174,-0.6161,-0.613,-0.61,-0.6072,-0.6055,-0.6027,-0.6004,-0.5994,-0.5997,-0.5999,-0.6001,-0.6,-0.5986,-0.5987,-0.5977,-0.5977,-0.5977,0,0,-0.6389,-0.6358,-0.6345,-0.63,-0.6275,-0.6252,-0.6232,-0.6208,-0.6191,-0.6157,-0.6129,-0.6105,-0.6068,-0.6043,-0.603,-0.6024,-0.6,-0.6001,-0.6003,-0.6001,-0.5986,-0.5987,-0.5988,-0.5977,-0.5977,-0.5977,0,0,-0.6395,-0.6369,-0.6352,-0.6327,-0.629,-0.6265,-0.6261,-0.6218,-0.6201,-0.6173,-0.6147,-0.6125,-0.6079,-0.6054,-0.6035,-0.6032,-0.6014,-0.6024,-0.6035,-0.6022,-0.6023,-0.6023,-0.6022,-0.6023,-0.6023,-0.6023,-0.6023,0,-0.6412,-0.6377,-0.6345,-0.6323,-0.6304,-0.6273,-0.6255,-0.6232,-0.6188,-0.6175,-0.6169,-0.611,-0.6083,-0.6051,-0.6051,-0.6037,-0.6031,-0.6029,-0.6025,-0.6026,-0.6026,-0.6024,-0.6024,-0.6025,-0.6025,-0.6025,-0.6024,0,-0.6399,-0.6375,-0.6366,-0.6324,-0.6304,-0.6284,-0.6249,-0.6232,-0.6213,-0.6189,-0.616,-0.6126,-0.6092,-0.6082,-0.6063,-0.6048,-0.6045,-0.6033,-0.6021,-0.6029,-0.6027,-0.6026,-0.6027,-0.6027,-0.6026,-0.6026,0,0,-0.6426,-0.6367,-0.6364,-0.6345,-0.6302,-0.6282,-0.6261,-0.6227,-0.6214,-0.6184,-0.6165,-0.6127,-0.6115,-0.6094,-0.6071,-0.606,-0.606,-0.6049,-0.6047,-0.6052,-0.6042,-0.6051,-0.6051,-0.6048,-0.6048,-0.6047,-0.6045,0,-0.6426,-0.6387,-0.6358,-0.6329,-0.6306,-0.6277,-0.6258,-0.6229,-0.6206,-0.6183,-0.6157,-0.613,-0.6117,-0.6104,-0.6091,-0.6063,-0.6058,-0.6063,-0.6029,-0.6029,-0.604,-0.605,-0.606,-0.6059,-0.6044,-0.6044,-0.6043,0,-0.6421,-0.6393,-0.6362,-0.6322,-0.6311,-0.6295,-0.6262,-0.6241,-0.6207,-0.6191,-0.6168,-0.6145,-0.6121,-0.6112,-0.6078,-0.6082,-0.6067,-0.6051,-0.605,-0.6045,-0.6037,-0.6046,-0.6058,-0.6058,-0.6042,-0.6042,-0.6042,0,-0.6443,-0.6398,-0.6374,-0.6358,-0.631,-0.63,-0.6279,-0.6246,-0.6227,-0.6199,-0.6186,-0.6155,-0.6138,-0.6114,-0.6083,-0.6079,-0.6052,-0.6041,-0.6038,-0.6038,-0.6033,-0.6034,-0.6043,-0.6023,-0.6023,-0.6023,-0.6023,0,-0.6446,-0.6429,-0.6383,-0.6369,-0.6348,-0.6315,-0.6295,-0.6272,-0.6243,-0.6223,-0.6195,-0.6176,-0.6137,-0.6114,-0.609,-0.6065,-0.6057,-0.6043,-0.6037,-0.6046,-0.6048,-0.6035,-0.6034,-0.6023,-0.6023,-0.6023,-0.6023,0,-0.6468,-0.6437,-0.6408,-0.6366,-0.6354,-0.6341,-0.6304,-0.6288,-0.6264,-0.6239,-0.6231,-0.6192,-0.6163,-0.613,-0.6091,-0.6074,-0.6052,-0.6042,-0.6063,-0.606,-0.6059,-0.6059,-0.606,-0.6058,-0.604,-0.604,-0.6041,0,-0.6472,-0.6458,-0.6414,-0.6399,-0.6379,-0.6355,-0.6336,-0.6303,-0.6285,-0.6246,-0.6235,-0.6205,-0.6178,-0.6134,-0.6102,-0.6071,-0.6061,-0.6063,-0.6056,-0.6065,-0.6061,-0.6062,-0.6061,-0.6065,-0.6066,-0.6066,-0.6066,0,-0.6483,-0.6468,-0.6443,-0.6412,-0.6391,-0.6365,-0.6338,-0.6327,-0.6289,-0.6269,-0.624,-0.622,-0.618,-0.6149,-0.6115,-0.6093,-0.6073,-0.6069,-0.6066,-0.6075,-0.6088,-0.6081,-0.6069,-0.6069,-0.6069,-0.6068,-0.6068,-0.6068,-0.6495,-0.6482,-0.6449,-0.6421,-0.6398,-0.6373,-0.6357,-0.633,-0.6305,-0.627,-0.6252,-0.6223,-0.619,-0.6142,-0.6121,-0.6097,-0.6091,-0.6087,-0.6086,-0.6086,-0.6089,-0.6092,-0.6091,-0.6091,-0.6091,-0.6091,-0.609,0,-0.6505,-0.6482,-0.6457,-0.6421,-0.64,-0.6383,-0.6353,-0.6336,-0.6311,-0.6282,-0.6257,-0.6223,-0.6194,-0.616,-0.6128,-0.6116,-0.6106,-0.6109,-0.6109,-0.6105,-0.6096,-0.6102,-0.6117,-0.6117,-0.6117,-0.6117,-0.6117,-0.6117,-0.6507,-0.6483,-0.6465,-0.6429,-0.6406,-0.6378,-0.6362,-0.6339,-0.6316,-0.6279,-0.6255,-0.6233,-0.6202,-0.6168,-0.6141,-0.6131,-0.6121,-0.6127,-0.6115,-0.6108,-0.6105,-0.6103,-0.6108,-0.6125,-0.6125,-0.6125,-0.6125,-0.6125]},{"header":{"parameterUnit":"m.s-1","parameterCategory":1,"la1":30.2991,"la2":30.254,"lo1":-89.0895,"lo2":-89.0444,"dy":0.0017,"dx":0.0017,"nx":28,"ny":28,"refTime":"2025-07-05T03:00:00:Z","depth":0,"parameterNumber":3,"parameterNumberName":"V-component_of_WINDS"},"data":[0,0,0,0,0,0,0,0,0,0,0,0,0,0,0,0,0,0,0,0,0,0,0,0,0,0,0,0,0,0,0,0,0,0,0,0,0,0,0,0,0,0,0,0,0,0,0,0,0,0,0,0,0,0,0,0,0,0,1.888,1.8879,0,1.8807,1.8807,1.8806,1.8817,1.8818,1.882,1.8821,1.8743,1.874,1.8737,0,0,0,0,0,0,0,0,0,0,0,0,0,1.9024,1.9021,1.888,1.8879,1.8878,1.8808,1.8806,1.8805,1.8817,1.8818,1.882,1.8821,1.8744,1.8741,1.8737,0,0,0,0,0,0,0,0,0,0,0,0,0,1.8957,1.902,1.888,1.8875,1.8874,1.8808,1.8806,1.8805,1.8817,1.8818,1.882,1.8822,1.8746,1.8741,1.8736,1.8669,0,0,1.8721,1.8719,0,0,0,0,0,0,0,0,1.8961,1.8952,1.8877,1.8875,1.8874,1.8823,1.8829,1.8759,1.8816,1.8838,1.8821,1.8823,1.8768,1.8762,1.8744,1.8665,1.8662,1.8721,1.8718,1.8716,1.8715,0,0,0,0,0,0,0,1.8966,1.8955,1.8851,1.8876,1.8874,1.8875,1.8868,1.8816,1.8793,1.8836,1.8837,1.8829,1.8768,1.8748,1.8742,1.8661,1.8721,1.8717,1.8714,1.8712,1.8521,1.8519,0,0,0,0,0,0,1.8972,1.8959,1.8853,1.8849,1.8923,1.8871,1.8863,1.8838,1.8794,1.8789,1.8827,1.8829,1.8756,1.8748,1.8739,1.8656,1.8716,1.8711,1.8709,1.8523,1.8521,1.8518,0,0,0,0,0,0,1.8975,1.8963,1.8856,1.8904,1.8891,1.8867,1.8838,1.8835,1.8816,1.8787,1.8783,1.8812,1.8757,1.8746,1.8686,1.8653,1.8709,1.8705,1.8526,1.8522,1.8519,1.8489,0,0,0,0,0,0,1.8979,1.8964,1.8939,1.8903,1.8888,1.8805,1.8836,1.8832,1.8808,1.881,1.8771,1.8767,1.8758,1.8693,1.8681,1.8648,1.8701,1.8529,1.8524,1.852,1.8493,1.8485,1.8479,0,0,0,0,0,1.8984,1.8933,1.8938,1.8925,1.8857,1.8803,1.8794,1.8786,1.8805,1.8779,1.8761,1.8768,1.8659,1.8687,1.8674,1.8638,1.8531,1.8525,1.8521,1.8496,1.8487,1.8479,0,0,0,0,0,0,1.8964,1.8928,1.8933,1.8869,1.8839,1.8805,1.8772,1.8776,1.874,1.8743,1.8733,1.8724,1.8663,1.8645,1.8676,1.857,1.8597,1.859,1.8583,1.8574,1.8567,1.8572,1.8697,0,0,0,0,0,1.8953,1.8913,1.8884,1.883,1.8815,1.8796,1.8773,1.8769,1.8737,1.8724,1.8701,1.8669,1.8628,1.86,1.8561,1.8491,1.8482,1.846,1.8453,1.8447,1.844,1.84,1.8389,1.8502,1.8502,1.8502,0,0,1.8927,1.8903,1.8879,1.8825,1.8802,1.876,1.8785,1.874,1.8709,1.8717,1.8658,1.864,1.8604,1.8538,1.8508,1.8521,1.8407,1.8441,1.8437,1.8433,1.8394,1.8383,1.8373,1.8499,1.8499,1.85,0,0,1.886,1.8839,1.879,1.8766,1.8731,1.8718,1.8707,1.8672,1.8661,1.8602,1.8607,1.8569,1.8498,1.8471,1.8448,1.837,1.8375,1.8357,1.8319,1.828,1.8271,1.8263,1.8233,1.8223,1.8351,1.8351,1.8351,0,1.8833,1.8771,1.8765,1.8719,1.8694,1.8701,1.8651,1.8627,1.858,1.8562,1.8578,1.8489,1.8465,1.8392,1.8373,1.8355,1.8339,1.8361,1.8274,1.8265,1.8258,1.8229,1.8218,1.8349,1.8349,1.8349,1.8349,0,1.8738,1.8695,1.866,1.8615,1.8587,1.8539,1.8524,1.8496,1.8494,1.848,1.8419,1.8391,1.8345,1.8328,1.8326,1.8254,1.8263,1.8276,1.8303,1.8245,1.8217,1.8207,1.8346,1.8346,1.8347,1.8347,0,0,1.8655,1.8607,1.8594,1.8573,1.8534,1.8499,1.8451,1.8407,1.8382,1.8349,1.8307,1.8247,1.8259,1.8233,1.8228,1.8194,1.8131,1.8211,1.821,1.8195,1.8047,1.8036,1.8023,1.8135,1.8132,1.8131,1.805,0,1.8582,1.8498,1.849,1.8414,1.8373,1.8378,1.8336,1.8307,1.8292,1.8254,1.8238,1.8194,1.8214,1.8198,1.8165,1.8145,1.81,1.8152,1.8093,1.8091,1.81,1.8009,1.7997,1.7922,1.8039,1.8037,1.8036,0,1.8485,1.845,1.837,1.8335,1.8317,1.828,1.8237,1.8202,1.8168,1.8159,1.813,1.813,1.8078,1.8109,1.8037,1.8072,1.8048,1.8035,1.8032,1.8024,1.8058,1.7997,1.7898,1.7886,1.8019,1.8021,1.8022,0,1.843,1.8362,1.8305,1.8287,1.8246,1.8218,1.82,1.8168,1.8141,1.8104,1.8087,1.8044,1.802,1.7987,1.7974,1.7998,1.7902,1.7932,1.7891,1.7891,1.7869,1.787,1.7762,1.7857,1.7857,1.7858,1.7858,0,1.8348,1.8298,1.8279,1.8243,1.8187,1.8179,1.8123,1.8105,1.8077,1.8037,1.804,1.8002,1.7988,1.7948,1.7938,1.7878,1.7868,1.7858,1.7856,1.7857,1.7858,1.7839,1.7843,1.7855,1.7855,1.7856,1.7856,0,1.8275,1.8261,1.8199,1.8165,1.8155,1.8115,1.8085,1.805,1.8036,1.7985,1.7973,1.795,1.7902,1.7887,1.783,1.7823,1.7753,1.7756,1.7764,1.7763,1.7722,1.7725,1.7597,1.7579,1.7688,1.7687,1.7686,0,1.8223,1.8184,1.8146,1.812,1.81,1.8058,1.8031,1.8021,1.7992,1.795,1.792,1.7873,1.7835,1.7758,1.7736,1.7691,1.7692,1.765,1.7685,1.7687,1.7688,1.769,1.7685,1.7643,1.7642,1.7641,1.764,0,1.813,1.8125,1.8086,1.8044,1.8012,1.7978,1.7946,1.7924,1.7909,1.7876,1.7828,1.7798,1.774,1.7692,1.7647,1.7626,1.7629,1.7629,1.7617,1.7617,1.7622,1.7616,1.7744,1.7632,1.7633,1.7633,1.7634,1.7634,1.8065,1.803,1.7997,1.7953,1.7928,1.7898,1.7862,1.7844,1.7804,1.7755,1.7752,1.7699,1.7665,1.7604,1.7582,1.7539,1.7551,1.7534,1.7529,1.7524,1.752,1.7631,1.7531,1.7531,1.7532,1.7532,1.7532,0,1.797,1.795,1.7909,1.7864,1.7829,1.7837,1.7801,1.7771,1.7724,1.7693,1.7655,1.7598,1.7552,1.7527,1.748,1.7451,1.7451,1.7439,1.744,1.7434,1.7513,1.7528,1.7439,1.7439,1.7439,1.7439,1.7439,1.7439,1.7917,1.7858,1.7849,1.7777,1.7756,1.7705,1.7683,1.7654,1.7629,1.7566,1.7528,1.7512,1.7482,1.7433,1.739,1.7384,1.7366,1.7352,1.7346,1.742,1.7429,1.7438,1.7451,1.7348,1.7348,1.727,1.7269,1.7269]}]]